Hourly Data Report for September 25, 2017

All times are specified in Local Standard Time (LST). Add 1 hour to adjust for Daylight Saving Time where and when it is observed.

MONCTON INTL A
NEW BRUNSWICK

46°06'44.000" N
64°40'43.000" W
70.70 m
8103201
71705
YQM

Download Data

Hourly Data (September 2017)
Hourly Data Report for September 25, 2017
Temp Definition
°C
Dew Point Temp Definition
°C
Rel Hum Definition
%
Wind Dir Definition
10's deg

Wind Spd Definition
km/h
Visibility Definition
km
Stn Press Definition
kPa
Hmdx Definition


Wind Chill Definition


Weather Definition


TIME
00:00 Legend Double Dagger 14.8 14.0 95 1 7 24.1 100.89     LegendNANA
01:00 Legend Double Dagger 14.7 13.8 94 2 5 24.1 100.96     LegendNANA
02:00 Legend Double Dagger 13.8 13.4 97 36 2 24.1 100.93     Mainly Clear
03:00 Legend Double Dagger 12.6 12.3 98 35 8 24.1 100.97     LegendNANA
04:00 Legend Double Dagger 11.8 11.7 99 1 8 24.1 100.97     LegendNANA
05:00 Legend Double Dagger 12.4 12.2 99 36 5 24.1 100.99     Mainly Clear
06:00 Legend Double Dagger 12.7 12.5 99 1 6 24.1 101.07     LegendNANA
07:00 Legend Double Dagger 13.1 12.8 98 36 2 24.1 101.10     LegendNANA
08:00 Legend Double Dagger 15.2 14.1 93 12 7 24.1 101.13     Mostly Cloudy
09:00 Legend Double Dagger 16.7 14.3 86 9 8 24.1 101.11     LegendNANA
10:00 Legend Double Dagger 18.6 14.4 76 2 4 24.1 101.14     LegendNANA
11:00 Legend Double Dagger 19.6 14.0 70 9 3 24.1 101.09     Mostly Cloudy
12:00 Legend Double Dagger 21.3 14.7 66 16 5 24.1 101.04 25   LegendNANA
13:00 Legend Double Dagger 23.2 15.5 61 18 5 24.1 100.96 27   LegendNANA
14:00 Legend Double Dagger 24.4 16.4 61 20 13 24.1 100.90 29   Mainly Clear
15:00 Legend Double Dagger 24.9 17.0 61 18 12 24.1 100.84 30   LegendNANA
16:00 Legend Double Dagger 25.0 17.4 62 17 14 24.1 100.77 31   LegendNANA
17:00 Legend Double Dagger 24.4 17.6 65 16 16 24.1 100.73 30   Clear
18:00 Legend Double Dagger 23.0 17.9 73 18 14 24.1 100.74 29   LegendNANA
19:00 Legend Double Dagger 21.9 17.5 76 19 16 24.1 100.71 28   LegendNANA
20:00 Legend Double Dagger 20.7 17.1 80 19 17 24.1 100.71 26   Clear
21:00 Legend Double Dagger 18.8 16.6 87 19 16 24.1 100.69     LegendNANA
22:00 Legend Double Dagger 17.5 15.9 90 19 13 24.1 100.66     LegendNANA
23:00 Legend Double Dagger 16.7 15.5 93 20 13 24.1 100.62     Clear

Notes on Data Quality.

Legend

  • E = Estimated
  • M = Missing
  • NA = Not Available
  • ‡ = Partner data that is not subject to review by the National Climate Archives
Date modified: